Year,Month,Day,Hour,Minute,Value (Times are PST for temperature in C)
2018,02,05,00,00,10.10
2018,02,05,00,01,10.10
2018,02,05,00,02,10.00
2018,02,05,00,03,10.00
2018,02,05,00,04,10.00
2018,02,05,00,05,10.00
2018,02,05,00,06,10.00
2018,02,05,00,07,9.90
2018,02,05,00,08,9.90
2018,02,05,00,09,9.90
2018,02,05,00,10,9.90
2018,02,05,00,11,9.90
2018,02,05,00,12,9.90
2018,02,05,00,13,9.90
2018,02,05,00,14,9.80
2018,02,05,00,15,9.80
2018,02,05,00,16,9.80
2018,02,05,00,17,9.80
2018,02,05,00,18,9.80
2018,02,05,00,19,9.80
2018,02,05,00,20,9.80
2018,02,05,00,21,9.80
2018,02,05,00,22,9.80
2018,02,05,00,23,9.70
2018,02,05,00,24,9.70
2018,02,05,00,25,9.70
2018,02,05,00,26,9.70
2018,02,05,00,27,9.70
2018,02,05,00,28,9.60
2018,02,05,00,29,9.60
2018,02,05,00,30,9.60
2018,02,05,00,31,9.60
2018,02,05,00,32,9.50
2018,02,05,00,33,9.50
2018,02,05,00,34,9.50
2018,02,05,00,35,9.40
2018,02,05,00,36,9.40
2018,02,05,00,37,9.30
2018,02,05,00,38,9.30
2018,02,05,00,39,9.30
2018,02,05,00,40,9.20
2018,02,05,00,41,9.20
2018,02,05,00,42,9.10
2018,02,05,00,43,9.10
2018,02,05,00,44,9.00
2018,02,05,00,45,9.00
2018,02,05,00,46,8.90
2018,02,05,00,47,8.90
2018,02,05,00,48,8.80
2018,02,05,00,49,8.70
2018,02,05,00,50,8.70
2018,02,05,00,51,8.60
2018,02,05,00,52,8.60
2018,02,05,00,53,8.50
2018,02,05,00,54,8.40
2018,02,05,00,55,8.40
2018,02,05,00,56,8.30
2018,02,05,00,57,8.30
2018,02,05,00,58,8.30
2018,02,05,00,59,8.20
2018,02,05,01,00,8.20
2018,02,05,01,01,8.10
2018,02,05,01,02,8.10
2018,02,05,01,03,8.00
2018,02,05,01,04,8.00
2018,02,05,01,05,7.90
2018,02,05,01,06,7.90
2018,02,05,01,07,7.90
2018,02,05,01,08,7.80
2018,02,05,01,09,7.80
2018,02,05,01,10,7.80
2018,02,05,01,11,7.80
2018,02,05,01,12,7.80
2018,02,05,01,13,7.70
2018,02,05,01,14,7.70
2018,02,05,01,15,7.70
2018,02,05,01,16,7.70
2018,02,05,01,17,7.70
2018,02,05,01,18,7.70
2018,02,05,01,19,7.70
2018,02,05,01,20,7.80
2018,02,05,01,21,7.80
2018,02,05,01,22,8.00
2018,02,05,01,23,8.10
2018,02,05,01,24,8.20
2018,02,05,01,25,8.30
2018,02,05,01,26,8.40
2018,02,05,01,27,8.50
2018,02,05,01,28,8.70
2018,02,05,01,29,8.80
2018,02,05,01,30,8.90
2018,02,05,01,31,9.00
2018,02,05,01,32,9.20
2018,02,05,01,33,9.30
2018,02,05,01,34,9.40
2018,02,05,01,35,9.50
2018,02,05,01,36,9.50
2018,02,05,01,37,9.60
2018,02,05,01,38,9.70
2018,02,05,01,39,9.70
2018,02,05,01,40,9.80
2018,02,05,01,41,9.90
2018,02,05,01,42,9.90
2018,02,05,01,43,10.00
2018,02,05,01,44,10.00
2018,02,05,01,45,10.10
2018,02,05,01,46,10.10
2018,02,05,01,47,10.20
2018,02,05,01,48,10.20
2018,02,05,01,49,10.20
2018,02,05,01,50,10.20
2018,02,05,01,51,10.20
2018,02,05,01,52,10.30
2018,02,05,01,53,10.30
2018,02,05,01,54,10.30
2018,02,05,01,55,10.30
2018,02,05,01,56,10.30
2018,02,05,01,57,10.30
2018,02,05,01,58,10.30
2018,02,05,01,59,10.30
2018,02,05,02,00,10.40
2018,02,05,02,01,10.40
2018,02,05,02,02,10.40
2018,02,05,02,03,10.40
2018,02,05,02,04,10.40
2018,02,05,02,05,10.40
2018,02,05,02,06,10.40
2018,02,05,02,07,10.40
2018,02,05,02,08,10.40
2018,02,05,02,09,10.40
2018,02,05,02,10,10.40
2018,02,05,02,11,10.30
2018,02,05,02,12,10.30
2018,02,05,02,13,10.30
2018,02,05,02,14,10.30
2018,02,05,02,15,10.30
2018,02,05,02,16,10.30
2018,02,05,02,17,10.30
2018,02,05,02,18,10.30
2018,02,05,02,19,10.30
2018,02,05,02,20,10.30
2018,02,05,02,21,10.30
2018,02,05,02,22,10.30
2018,02,05,02,23,10.30
2018,02,05,02,24,10.30
2018,02,05,02,25,10.30
2018,02,05,02,26,10.30
2018,02,05,02,27,10.30
2018,02,05,02,28,10.30
2018,02,05,02,29,10.30
2018,02,05,02,30,10.30
2018,02,05,02,31,10.30
2018,02,05,02,32,10.30
2018,02,05,02,33,10.30
2018,02,05,02,34,10.30
2018,02,05,02,35,10.30
2018,02,05,02,36,10.30
2018,02,05,02,37,10.30
2018,02,05,02,38,10.30
2018,02,05,02,39,10.30
2018,02,05,02,40,10.30
2018,02,05,02,41,10.30
2018,02,05,02,42,10.30
2018,02,05,02,43,10.30
2018,02,05,02,44,10.30
2018,02,05,02,45,10.30
2018,02,05,02,46,10.30
2018,02,05,02,47,10.30
2018,02,05,02,48,10.20
2018,02,05,02,49,10.20
2018,02,05,02,50,10.20
2018,02,05,02,51,10.20
2018,02,05,02,52,10.20
2018,02,05,02,53,10.20
2018,02,05,02,54,10.20
2018,02,05,02,55,10.20
2018,02,05,02,56,10.20
2018,02,05,02,57,10.10
2018,02,05,02,58,10.10
2018,02,05,02,59,10.10
2018,02,05,03,00,10.10
2018,02,05,03,01,10.10
2018,02,05,03,02,10.00
2018,02,05,03,03,10.00
2018,02,05,03,06,9.90
2018,02,05,03,07,9.90
2018,02,05,03,08,9.80
2018,02,05,03,09,9.80
2018,02,05,03,10,9.80
2018,02,05,03,11,9.80
2018,02,05,03,12,9.80
2018,02,05,03,13,9.70
2018,02,05,03,14,9.70
2018,02,05,03,15,9.70
2018,02,05,03,16,9.70
2018,02,05,03,17,9.70
2018,02,05,03,18,9.60
2018,02,05,03,19,9.60
2018,02,05,03,20,9.60
2018,02,05,03,21,9.60
2018,02,05,03,22,9.60
2018,02,05,03,23,9.60
2018,02,05,03,24,9.50
2018,02,05,03,25,9.50
2018,02,05,03,26,9.50
2018,02,05,03,27,9.40
2018,02,05,03,28,9.40
2018,02,05,03,29,9.40
2018,02,05,03,30,9.40
2018,02,05,03,31,9.40
2018,02,05,03,32,9.40
2018,02,05,03,33,9.30
2018,02,05,03,34,9.30
2018,02,05,03,35,9.30
2018,02,05,03,36,9.30
2018,02,05,03,37,9.30
2018,02,05,03,38,9.30
2018,02,05,03,39,9.20
2018,02,05,03,40,9.20
2018,02,05,03,41,9.20
2018,02,05,03,42,9.20
2018,02,05,03,43,9.20
2018,02,05,03,44,9.20
2018,02,05,03,45,9.20
2018,02,05,03,46,9.10
2018,02,05,03,47,9.10
2018,02,05,03,48,9.10
2018,02,05,03,49,9.10
2018,02,05,03,50,9.10
2018,02,05,03,51,9.00
2018,02,05,03,52,9.00
2018,02,05,03,53,9.00
2018,02,05,03,54,8.90
2018,02,05,03,55,8.90
2018,02,05,03,56,8.90
2018,02,05,03,57,8.90
2018,02,05,03,58,8.90
2018,02,05,03,59,8.90
2018,02,05,04,00,8.90
2018,02,05,04,01,8.80
2018,02,05,04,02,8.80
2018,02,05,04,03,8.80
2018,02,05,04,04,8.80
2018,02,05,04,05,8.80
2018,02,05,04,06,8.80
2018,02,05,04,07,8.70
2018,02,05,04,08,8.70
2018,02,05,04,09,8.70
2018,02,05,04,10,8.70
2018,02,05,04,11,8.70
2018,02,05,04,12,8.70
2018,02,05,04,13,8.70
2018,02,05,04,14,8.70
2018,02,05,04,15,8.70
2018,02,05,04,16,8.60
2018,02,05,04,17,8.60
2018,02,05,04,18,8.60
2018,02,05,04,19,8.60
2018,02,05,04,20,8.60
2018,02,05,04,21,8.50
2018,02,05,04,22,8.50
2018,02,05,04,23,8.40
2018,02,05,04,24,8.40
2018,02,05,04,25,8.40
2018,02,05,04,26,8.40
2018,02,05,04,27,8.30
2018,02,05,04,28,8.30
2018,02,05,04,29,8.30
2018,02,05,04,30,8.30
2018,02,05,04,31,8.20
2018,02,05,04,32,8.20
2018,02,05,04,33,8.20
2018,02,05,04,34,8.20
2018,02,05,04,35,8.10
2018,02,05,04,36,8.10
2018,02,05,04,37,8.10
2018,02,05,04,38,8.10
2018,02,05,04,39,8.00
2018,02,05,04,40,8.00
2018,02,05,04,41,8.00
2018,02,05,04,42,7.90
2018,02,05,04,43,7.90
2018,02,05,04,44,7.90
2018,02,05,04,45,7.80
2018,02,05,04,46,7.80
2018,02,05,04,47,7.80
2018,02,05,04,48,7.80
2018,02,05,04,49,7.80
2018,02,05,04,50,7.80
2018,02,05,04,51,7.80
2018,02,05,04,52,7.80
2018,02,05,04,53,7.70
2018,02,05,04,54,7.70
2018,02,05,04,55,7.70
2018,02,05,04,56,7.70
2018,02,05,04,57,7.70
2018,02,05,04,58,7.70
2018,02,05,04,59,7.70
2018,02,05,05,00,7.70
2018,02,05,05,01,7.70
2018,02,05,05,02,7.70
2018,02,05,05,03,7.60
2018,02,05,05,04,7.60
2018,02,05,05,05,7.60
2018,02,05,05,06,7.60
2018,02,05,05,07,7.60
2018,02,05,05,08,7.60
2018,02,05,05,09,7.60
2018,02,05,05,10,7.60
2018,02,05,05,11,7.60
2018,02,05,05,12,7.60
2018,02,05,05,13,7.60
2018,02,05,05,14,7.50
2018,02,05,05,15,7.60
2018,02,05,05,16,7.50
2018,02,05,05,17,7.50
2018,02,05,05,18,7.50
2018,02,05,05,19,7.50
2018,02,05,05,20,7.50
2018,02,05,05,21,7.50
2018,02,05,05,22,7.50
2018,02,05,05,23,7.40
2018,02,05,05,24,7.40
2018,02,05,05,25,7.40
2018,02,05,05,26,7.40
2018,02,05,05,27,7.40
2018,02,05,05,28,7.40
2018,02,05,05,29,7.40
2018,02,05,05,30,7.40
2018,02,05,05,31,7.40
2018,02,05,05,32,7.40
2018,02,05,05,33,7.40
2018,02,05,05,34,7.30
2018,02,05,05,35,7.30
2018,02,05,05,36,7.30
2018,02,05,05,37,7.30
2018,02,05,05,38,7.30
2018,02,05,05,39,7.30
2018,02,05,05,40,7.20
2018,02,05,05,41,7.20
2018,02,05,05,42,7.20
2018,02,05,05,43,7.20
2018,02,05,05,44,7.20
2018,02,05,05,45,7.20
2018,02,05,05,46,7.20
2018,02,05,05,47,7.20
2018,02,05,05,48,7.10
2018,02,05,05,49,7.10
2018,02,05,05,50,7.10
2018,02,05,05,51,7.10
2018,02,05,05,52,7.10
2018,02,05,05,53,7.10
2018,02,05,05,54,7.10
2018,02,05,05,55,7.10
2018,02,05,05,56,7.10
2018,02,05,05,57,7.10
2018,02,05,05,58,7.00
2018,02,05,05,59,7.00
2018,02,05,06,00,7.00
2018,02,05,06,01,7.00
2018,02,05,06,02,7.00
2018,02,05,06,03,7.00
2018,02,05,06,04,7.00
2018,02,05,06,05,7.00
2018,02,05,06,06,7.00
2018,02,05,06,07,7.00
2018,02,05,06,08,6.90
2018,02,05,06,09,6.90
2018,02,05,06,10,6.90
2018,02,05,06,11,6.90
2018,02,05,06,12,6.90
2018,02,05,06,13,6.90
2018,02,05,06,14,6.90
2018,02,05,06,15,6.90
2018,02,05,06,16,6.90
2018,02,05,06,17,6.90
2018,02,05,06,18,6.90
2018,02,05,06,19,6.80
2018,02,05,06,20,6.80
2018,02,05,06,21,6.80
2018,02,05,06,22,6.80
2018,02,05,06,23,6.80
2018,02,05,06,24,6.80
2018,02,05,06,25,6.80
2018,02,05,06,26,6.80
2018,02,05,06,27,6.80
2018,02,05,06,28,6.80
2018,02,05,06,29,6.80
2018,02,05,06,30,6.80
2018,02,05,06,31,6.70
2018,02,05,06,32,6.70
2018,02,05,06,33,6.70
2018,02,05,06,34,6.70
2018,02,05,06,35,6.70
2018,02,05,06,36,6.70
2018,02,05,06,37,6.70
2018,02,05,06,38,6.70
2018,02,05,06,39,6.70
2018,02,05,06,40,6.70
2018,02,05,06,41,6.70
2018,02,05,06,42,6.70
2018,02,05,06,43,6.70
2018,02,05,06,44,6.70
2018,02,05,06,45,6.60
2018,02,05,06,46,6.60
2018,02,05,06,47,6.60
2018,02,05,06,48,6.60
2018,02,05,06,49,6.60
2018,02,05,06,50,6.60
2018,02,05,06,51,6.60
2018,02,05,06,52,6.60
2018,02,05,06,53,6.50
2018,02,05,06,54,6.50
2018,02,05,06,55,6.50
2018,02,05,06,56,6.50
2018,02,05,06,57,6.50
2018,02,05,06,58,6.50
2018,02,05,06,59,6.50
2018,02,05,07,00,6.40
2018,02,05,07,01,6.40
2018,02,05,07,02,6.40
2018,02,05,07,03,6.40
2018,02,05,07,04,6.40
2018,02,05,07,05,6.40
2018,02,05,07,06,6.40
2018,02,05,07,07,6.40
2018,02,05,07,08,6.40
2018,02,05,07,09,6.40
2018,02,05,07,10,6.30
2018,02,05,07,11,6.30
2018,02,05,07,12,6.30
2018,02,05,07,13,6.30
2018,02,05,07,14,6.30
2018,02,05,07,15,6.30
2018,02,05,07,16,6.30
2018,02,05,07,17,6.30
2018,02,05,07,18,6.30
2018,02,05,07,19,6.30
2018,02,05,07,20,6.30
2018,02,05,07,21,6.20
2018,02,05,07,22,6.20
2018,02,05,07,23,6.20
2018,02,05,07,24,6.20
2018,02,05,07,25,6.20
2018,02,05,07,26,6.20
2018,02,05,07,27,6.10
2018,02,05,07,28,6.10
2018,02,05,07,29,6.10
2018,02,05,07,30,6.10
2018,02,05,07,31,6.10
2018,02,05,07,32,6.10
2018,02,05,07,33,6.10
2018,02,05,07,34,6.10
2018,02,05,07,35,6.10
2018,02,05,07,36,6.10
2018,02,05,07,37,6.10
2018,02,05,07,38,6.00
2018,02,05,07,39,6.00
2018,02,05,07,40,6.00
2018,02,05,07,41,5.90
2018,02,05,07,42,5.90
2018,02,05,07,43,5.90
2018,02,05,07,44,5.90
2018,02,05,07,45,5.80
2018,02,05,07,46,5.80
2018,02,05,07,47,5.80
2018,02,05,07,48,5.80
2018,02,05,07,49,5.80
2018,02,05,07,50,5.80
2018,02,05,07,51,5.80
2018,02,05,07,52,5.80
2018,02,05,07,53,5.80
2018,02,05,07,54,5.80
2018,02,05,07,55,5.80
2018,02,05,07,56,5.80
2018,02,05,07,57,5.80
2018,02,05,07,58,5.80
2018,02,05,07,59,5.80
2018,02,05,08,00,5.90
2018,02,05,08,01,5.90
2018,02,05,08,02,5.90
2018,02,05,08,03,5.90
2018,02,05,08,04,6.00
2018,02,05,08,05,6.00
2018,02,05,08,06,6.00
2018,02,05,08,07,6.00
2018,02,05,08,08,6.00
2018,02,05,08,09,6.00
2018,02,05,08,10,6.00
2018,02,05,08,11,6.00
2018,02,05,08,12,6.00
2018,02,05,08,13,6.00
2018,02,05,08,14,6.00
2018,02,05,08,15,6.00
2018,02,05,08,16,6.00
2018,02,05,08,17,6.00
2018,02,05,08,18,6.00
2018,02,05,08,19,6.00
2018,02,05,08,20,6.00
2018,02,05,08,21,6.00
2018,02,05,08,22,6.00
2018,02,05,08,23,6.10
2018,02,05,08,24,6.10
2018,02,05,08,25,6.10
2018,02,05,08,26,6.10
2018,02,05,08,27,6.10
2018,02,05,08,28,6.10
2018,02,05,08,29,6.10
2018,02,05,08,30,6.10
2018,02,05,08,31,6.10
2018,02,05,08,32,6.10
2018,02,05,08,33,6.10
2018,02,05,08,34,6.10
2018,02,05,08,35,6.10
2018,02,05,08,36,6.10
2018,02,05,08,37,6.10
2018,02,05,08,38,6.10
2018,02,05,08,39,6.10
2018,02,05,08,40,6.10
2018,02,05,08,41,6.10
2018,02,05,08,42,6.20
2018,02,05,08,43,6.20
2018,02,05,08,44,6.20
2018,02,05,08,45,6.20
2018,02,05,08,46,6.20
2018,02,05,08,47,6.20
2018,02,05,08,48,6.20
2018,02,05,08,49,6.30
2018,02,05,08,50,6.30
2018,02,05,08,51,6.30
2018,02,05,08,52,6.30
2018,02,05,08,53,6.30
2018,02,05,08,54,6.30
2018,02,05,08,55,6.40
2018,02,05,08,56,6.40
2018,02,05,08,57,6.40
2018,02,05,08,58,6.40
2018,02,05,08,59,6.50
2018,02,05,09,00,6.50
2018,02,05,09,01,6.50
2018,02,05,09,02,6.50
2018,02,05,09,03,6.50
2018,02,05,09,04,6.60
2018,02,05,09,05,6.60
2018,02,05,09,06,6.60
2018,02,05,09,07,6.60
2018,02,05,09,08,6.60
2018,02,05,09,09,6.70
2018,02,05,09,10,6.70
2018,02,05,09,11,6.70
2018,02,05,09,12,6.70
2018,02,05,09,13,6.70
2018,02,05,09,14,6.70
2018,02,05,09,15,6.80
2018,02,05,09,16,6.80
2018,02,05,09,17,6.80
2018,02,05,09,18,6.80
2018,02,05,09,19,6.90
2018,02,05,09,20,7.00
2018,02,05,09,21,7.10
2018,02,05,09,22,7.20
2018,02,05,09,23,7.30
2018,02,05,09,24,7.40
2018,02,05,09,25,7.50
2018,02,05,09,26,7.50
2018,02,05,09,27,7.60
2018,02,05,09,28,7.70
2018,02,05,09,29,7.80
2018,02,05,09,30,7.90
2018,02,05,09,31,7.90
2018,02,05,09,32,8.00
2018,02,05,09,33,8.10
2018,02,05,09,34,8.20
2018,02,05,09,35,8.30
2018,02,05,09,36,8.30
2018,02,05,09,37,8.40
2018,02,05,09,38,8.40
2018,02,05,09,39,8.50
2018,02,05,09,40,8.50
2018,02,05,09,41,8.60
2018,02,05,09,42,8.60
2018,02,05,09,43,8.70
2018,02,05,09,44,8.70
2018,02,05,09,45,8.70
2018,02,05,09,46,8.80
2018,02,05,09,47,8.80
2018,02,05,09,48,8.90
2018,02,05,09,49,8.90
2018,02,05,09,50,8.90
2018,02,05,09,51,9.00
2018,02,05,09,52,9.00
2018,02,05,09,53,9.00
2018,02,05,09,54,9.10
2018,02,05,09,55,9.10
2018,02,05,09,56,9.10
2018,02,05,09,57,9.20
2018,02,05,09,58,9.20
2018,02,05,09,59,9.20
2018,02,05,10,00,9.20
2018,02,05,10,01,9.20
2018,02,05,10,02,9.30
2018,02,05,10,03,9.30
2018,02,05,10,04,9.30
2018,02,05,10,05,9.30
2018,02,05,10,06,9.30
2018,02,05,10,07,9.30
2018,02,05,10,08,9.30
2018,02,05,10,09,9.40
2018,02,05,10,10,9.40
2018,02,05,10,11,9.40
2018,02,05,10,12,9.40
2018,02,05,10,13,9.40
2018,02,05,10,14,9.50
2018,02,05,10,15,9.50
2018,02,05,10,16,9.50
2018,02,05,10,17,9.60
2018,02,05,10,18,9.60
2018,02,05,10,19,9.60
2018,02,05,10,20,9.60
2018,02,05,10,21,9.60
2018,02,05,10,22,9.60
2018,02,05,10,23,9.60
2018,02,05,10,24,9.60
2018,02,05,10,25,9.60
2018,02,05,10,26,9.70
2018,02,05,10,27,9.70
2018,02,05,10,28,9.70
2018,02,05,10,29,9.70
2018,02,05,10,30,9.70
2018,02,05,10,31,9.70
2018,02,05,10,32,9.70
2018,02,05,10,33,9.70
2018,02,05,10,34,9.70
2018,02,05,10,35,9.70
2018,02,05,10,36,9.80
2018,02,05,10,37,9.80
2018,02,05,10,38,9.80
2018,02,05,10,39,9.80
2018,02,05,10,40,9.80
2018,02,05,10,41,9.80
2018,02,05,10,42,9.80
2018,02,05,10,43,9.80
2018,02,05,10,44,9.80
2018,02,05,10,45,9.80
2018,02,05,10,46,9.80
2018,02,05,10,47,9.80
2018,02,05,10,48,9.80
2018,02,05,10,49,9.80
2018,02,05,10,50,9.70
2018,02,05,10,51,9.70
2018,02,05,10,52,9.70
2018,02,05,10,53,9.70
2018,02,05,10,54,9.70
2018,02,05,10,55,9.70
2018,02,05,10,56,9.70
2018,02,05,10,57,9.70
2018,02,05,10,58,9.60
2018,02,05,10,59,9.60
2018,02,05,11,00,9.50
2018,02,05,11,01,9.50
2018,02,05,11,02,9.40
2018,02,05,11,03,9.40
2018,02,05,11,04,9.30
2018,02,05,11,05,9.30
2018,02,05,11,06,9.30
2018,02,05,11,07,9.30
2018,02,05,11,08,9.20
2018,02,05,11,09,9.20
2018,02,05,11,10,9.20
2018,02,05,11,11,9.20
2018,02,05,11,12,9.20
2018,02,05,11,13,9.20
2018,02,05,11,14,9.20
2018,02,05,11,15,9.20
2018,02,05,11,16,9.20
2018,02,05,11,17,9.20
2018,02,05,11,18,9.20
2018,02,05,11,19,9.20
2018,02,05,11,20,9.20
2018,02,05,11,21,9.20
2018,02,05,11,22,9.20
2018,02,05,11,23,9.20
2018,02,05,11,24,9.20
2018,02,05,11,25,9.30
2018,02,05,11,26,9.30
2018,02,05,11,27,9.30
2018,02,05,11,28,9.30
2018,02,05,11,29,9.40
2018,02,05,11,30,9.40
2018,02,05,11,31,9.40
2018,02,05,11,32,9.40
2018,02,05,11,33,9.50
2018,02,05,11,34,9.50
2018,02,05,11,35,9.60
2018,02,05,11,36,9.60
2018,02,05,11,37,9.60
2018,02,05,11,38,9.70
2018,02,05,11,39,9.70
2018,02,05,11,40,9.70
2018,02,05,11,41,9.80
2018,02,05,11,42,9.80
2018,02,05,11,43,9.80
2018,02,05,11,44,9.90
2018,02,05,11,45,9.90
2018,02,05,11,46,9.90
2018,02,05,11,47,10.00
2018,02,05,11,48,10.00
2018,02,05,11,49,10.10
2018,02,05,11,50,10.20
2018,02,05,11,51,10.20
2018,02,05,11,52,10.30
2018,02,05,11,53,10.30
2018,02,05,11,54,10.40
2018,02,05,11,55,10.40
2018,02,05,11,56,10.50
2018,02,05,11,57,10.60
2018,02,05,11,58,10.60
2018,02,05,11,59,10.70
2018,02,05,12,00,10.70
2018,02,05,12,01,10.70
2018,02,05,12,02,10.80
2018,02,05,12,03,10.80
2018,02,05,12,04,10.80
2018,02,05,12,05,10.80
2018,02,05,12,06,10.90
2018,02,05,12,07,10.90
2018,02,05,12,08,10.90
2018,02,05,12,09,11.00
2018,02,05,12,10,11.00
2018,02,05,12,11,11.10
2018,02,05,12,12,11.10
2018,02,05,12,13,11.10
2018,02,05,12,14,11.10
2018,02,05,12,15,11.20
2018,02,05,12,16,11.20
2018,02,05,12,17,11.20
2018,02,05,12,18,11.30
2018,02,05,12,19,11.30
2018,02,05,12,20,11.30
2018,02,05,12,21,11.30
2018,02,05,12,22,11.30
2018,02,05,12,23,11.30
2018,02,05,12,24,11.40
2018,02,05,12,25,11.40
2018,02,05,12,26,11.40
2018,02,05,12,27,11.30
2018,02,05,12,28,11.30
2018,02,05,12,29,11.20
2018,02,05,12,30,11.10
2018,02,05,12,31,11.00
2018,02,05,12,32,10.90
2018,02,05,12,33,10.70
2018,02,05,12,34,10.60
2018,02,05,12,35,10.50
2018,02,05,12,36,10.40
2018,02,05,12,37,10.30
2018,02,05,12,38,10.20
2018,02,05,12,39,10.20
2018,02,05,12,40,10.10
2018,02,05,12,41,10.10
2018,02,05,12,42,10.10
2018,02,05,12,43,10.00
2018,02,05,12,44,10.00
2018,02,05,12,45,9.90
2018,02,05,12,46,9.90
2018,02,05,12,47,9.90
2018,02,05,12,48,9.90
2018,02,05,12,49,9.90
2018,02,05,12,50,9.80
2018,02,05,12,51,9.80
2018,02,05,12,52,9.80
2018,02,05,12,53,9.80
2018,02,05,12,54,9.80
2018,02,05,12,55,9.80
2018,02,05,12,56,9.70
2018,02,05,12,57,9.70
2018,02,05,12,58,9.70
2018,02,05,12,59,9.70
2018,02,05,13,00,9.70
2018,02,05,13,01,9.70
2018,02,05,13,02,9.70
2018,02,05,13,03,9.60
2018,02,05,13,04,9.60
2018,02,05,13,05,9.60
2018,02,05,13,06,9.60
2018,02,05,13,07,9.60
2018,02,05,13,08,9.50
2018,02,05,13,09,9.50
2018,02,05,13,10,9.50
2018,02,05,13,11,9.50
2018,02,05,13,12,9.50
2018,02,05,13,13,9.50
2018,02,05,13,14,9.50
2018,02,05,13,15,9.50
2018,02,05,13,16,9.50
2018,02,05,13,17,9.50
2018,02,05,13,18,9.60
2018,02,05,13,19,9.60
2018,02,05,13,20,9.60
2018,02,05,13,21,9.60
2018,02,05,13,22,9.60
2018,02,05,13,23,9.60
2018,02,05,13,24,9.60
2018,02,05,13,25,9.60
2018,02,05,13,26,9.60
2018,02,05,13,27,9.60
2018,02,05,13,28,9.60
2018,02,05,13,29,9.60
2018,02,05,13,30,9.60
2018,02,05,13,31,9.60
2018,02,05,13,32,9.60
2018,02,05,13,33,9.60
2018,02,05,13,34,9.60
2018,02,05,13,35,9.60
2018,02,05,13,36,9.60
2018,02,05,13,37,9.60
2018,02,05,13,38,9.70
2018,02,05,13,39,9.70
2018,02,05,13,40,9.70
2018,02,05,13,41,9.70
2018,02,05,13,42,9.70
2018,02,05,13,43,9.70
2018,02,05,13,44,9.70
2018,02,05,13,45,9.70
2018,02,05,13,46,9.80
2018,02,05,13,47,9.80
2018,02,05,13,48,9.80
2018,02,05,13,49,9.80
2018,02,05,13,50,9.80
2018,02,05,13,51,9.80
2018,02,05,13,52,9.80
2018,02,05,13,53,9.80
2018,02,05,13,54,9.80
2018,02,05,13,55,9.80
2018,02,05,13,56,9.80
2018,02,05,13,57,9.80
2018,02,05,13,58,9.80
2018,02,05,13,59,9.80
2018,02,05,14,00,9.80
2018,02,05,14,01,9.70
2018,02,05,14,02,9.70
2018,02,05,14,03,9.70
2018,02,05,14,04,9.70
2018,02,05,14,05,9.70
2018,02,05,14,06,9.70
2018,02,05,14,07,9.60
2018,02,05,14,08,9.60
2018,02,05,14,09,9.60
2018,02,05,14,10,9.60
2018,02,05,14,11,9.60
2018,02,05,14,12,9.60
2018,02,05,14,13,9.50
2018,02,05,14,14,9.50
2018,02,05,14,15,9.50
2018,02,05,14,16,9.50
2018,02,05,14,17,9.50
2018,02,05,14,18,9.50
2018,02,05,14,19,9.40
2018,02,05,14,20,9.40
2018,02,05,14,21,9.40
2018,02,05,14,22,9.40
2018,02,05,14,23,9.40
2018,02,05,14,24,9.40
2018,02,05,14,25,9.40
2018,02,05,14,26,9.40
2018,02,05,14,27,9.30
2018,02,05,14,28,9.30
2018,02,05,14,29,9.30
2018,02,05,14,30,9.30
2018,02,05,14,31,9.30
2018,02,05,14,32,9.30
2018,02,05,14,33,9.30
2018,02,05,14,34,9.30
2018,02,05,14,35,9.30
2018,02,05,14,36,9.30
2018,02,05,14,37,9.30
2018,02,05,14,38,9.30
2018,02,05,14,39,9.30
2018,02,05,14,40,9.30
2018,02,05,14,41,9.30
2018,02,05,14,42,9.30
2018,02,05,14,43,9.20
2018,02,05,14,44,9.20
2018,02,05,14,45,9.20
2018,02,05,14,46,9.20
2018,02,05,14,47,9.20
2018,02,05,14,48,9.20
2018,02,05,14,49,9.20
2018,02,05,14,50,9.20
2018,02,05,14,51,9.20
2018,02,05,14,52,9.10
2018,02,05,14,53,9.10
2018,02,05,14,54,9.10
2018,02,05,14,55,9.10
2018,02,05,14,56,9.10
2018,02,05,14,57,9.10
2018,02,05,14,58,9.10
2018,02,05,14,59,9.10
2018,02,05,15,00,9.10
2018,02,05,15,01,9.10
2018,02,05,15,02,9.10
2018,02,05,15,03,9.10
2018,02,05,15,04,9.10
2018,02,05,15,05,9.10
2018,02,05,15,06,9.10
2018,02,05,15,07,9.10
2018,02,05,15,08,9.00
2018,02,05,15,09,9.00
2018,02,05,15,10,9.00
2018,02,05,15,11,8.90
2018,02,05,15,12,8.90
2018,02,05,15,13,8.90
2018,02,05,15,14,8.90
2018,02,05,15,15,8.90
2018,02,05,15,16,8.80
2018,02,05,15,17,8.80
2018,02,05,15,18,8.80
2018,02,05,15,19,8.80
2018,02,05,15,20,8.80
2018,02,05,15,21,8.80
2018,02,05,15,22,8.80
2018,02,05,15,23,8.80
2018,02,05,15,24,8.80
2018,02,05,15,25,8.80
2018,02,05,15,26,8.80
2018,02,05,15,27,8.80
2018,02,05,15,28,8.80
2018,02,05,15,29,8.80
2018,02,05,15,30,8.80
2018,02,05,15,31,8.80
2018,02,05,15,32,8.80
2018,02,05,15,33,8.80
2018,02,05,15,34,8.80
2018,02,05,15,35,8.80
2018,02,05,15,36,8.80
2018,02,05,15,37,8.80
2018,02,05,15,38,8.80
2018,02,05,15,39,8.80
2018,02,05,15,40,8.80
2018,02,05,15,41,8.80
2018,02,05,15,42,8.80
2018,02,05,15,43,8.80
2018,02,05,15,44,8.80
2018,02,05,15,45,8.80
2018,02,05,15,46,8.80
2018,02,05,15,47,8.80
2018,02,05,15,48,8.80
2018,02,05,15,49,8.80
2018,02,05,15,50,8.80
2018,02,05,15,51,8.70
2018,02,05,15,52,8.70
2018,02,05,15,53,8.70
2018,02,05,15,54,8.70
2018,02,05,15,55,8.70
2018,02,05,15,56,8.70
2018,02,05,15,57,8.70
2018,02,05,15,58,8.70
2018,02,05,15,59,8.70
2018,02,05,16,00,8.70
2018,02,05,16,01,8.70
2018,02,05,16,02,8.70
2018,02,05,16,03,8.70
2018,02,05,16,04,8.70
2018,02,05,16,05,8.70
2018,02,05,16,06,8.70
2018,02,05,16,07,8.70
2018,02,05,16,08,8.70
2018,02,05,16,09,8.70
2018,02,05,16,10,8.70
2018,02,05,16,11,8.70
2018,02,05,16,12,8.70
2018,02,05,16,13,8.70
2018,02,05,16,14,8.70
2018,02,05,16,15,8.70
2018,02,05,16,16,8.70
2018,02,05,16,17,8.70
2018,02,05,16,18,8.70
2018,02,05,16,19,8.70
2018,02,05,16,20,8.70
2018,02,05,16,21,8.70
2018,02,05,16,22,8.70
2018,02,05,16,23,8.70
2018,02,05,16,24,8.70
2018,02,05,16,25,8.70
2018,02,05,16,26,8.70
2018,02,05,16,27,8.70
2018,02,05,16,28,8.70
2018,02,05,16,29,8.70
2018,02,05,16,30,8.70
2018,02,05,16,31,8.70
2018,02,05,16,32,8.70
2018,02,05,16,33,8.70
2018,02,05,16,34,8.70
2018,02,05,16,35,8.70
2018,02,05,16,36,8.70
2018,02,05,16,37,8.70
2018,02,05,16,38,8.70
2018,02,05,16,39,8.70
2018,02,05,16,40,8.70
2018,02,05,16,41,8.70
2018,02,05,16,42,8.70
2018,02,05,16,43,8.70
2018,02,05,16,44,8.70
2018,02,05,16,45,8.70
2018,02,05,16,46,8.70
2018,02,05,16,47,8.70
2018,02,05,16,48,8.70
2018,02,05,16,49,8.70
2018,02,05,16,50,8.70
2018,02,05,16,51,8.60
2018,02,05,16,52,8.60
2018,02,05,16,53,8.60
2018,02,05,16,54,8.60
2018,02,05,16,55,8.60
2018,02,05,16,56,8.60
2018,02,05,16,57,8.60
2018,02,05,16,58,8.60
2018,02,05,16,59,8.60
2018,02,05,17,00,8.50
2018,02,05,17,01,8.50
2018,02,05,17,02,8.50
2018,02,05,17,03,8.50
2018,02,05,17,04,8.40
2018,02,05,17,05,8.40
2018,02,05,17,06,8.40
2018,02,05,17,07,8.40
2018,02,05,17,08,8.30
2018,02,05,17,09,8.30
2018,02,05,17,10,8.30
2018,02,05,17,11,8.30
2018,02,05,17,12,8.20
2018,02,05,17,13,8.20
2018,02,05,17,14,8.20
2018,02,05,17,15,8.10
2018,02,05,17,16,8.10
2018,02,05,17,17,8.10
2018,02,05,17,18,8.00
2018,02,05,17,19,8.00
2018,02,05,17,20,7.90
2018,02,05,17,21,7.90
2018,02,05,17,22,7.80
2018,02,05,17,23,7.80
2018,02,05,17,24,7.80
2018,02,05,17,25,7.70
2018,02,05,17,26,7.70
2018,02,05,17,27,7.70
2018,02,05,17,28,7.70
2018,02,05,17,29,7.60
2018,02,05,17,30,7.60
2018,02,05,17,31,7.60
2018,02,05,17,32,7.50
2018,02,05,17,33,7.50
2018,02,05,17,34,7.40
2018,02,05,17,35,7.40
2018,02,05,17,36,7.40
2018,02,05,17,37,7.30
2018,02,05,17,38,7.30
2018,02,05,17,39,7.30
2018,02,05,17,40,7.20
2018,02,05,17,41,7.20
2018,02,05,17,42,7.20
2018,02,05,17,43,7.10
2018,02,05,17,44,7.10
2018,02,05,17,45,7.10
2018,02,05,17,46,7.00
2018,02,05,17,47,7.00
2018,02,05,17,48,6.90
2018,02,05,17,49,6.90
2018,02,05,17,50,6.90
2018,02,05,17,51,6.80
2018,02,05,17,52,6.80
2018,02,05,17,53,6.80
2018,02,05,17,54,6.70
2018,02,05,17,55,6.70
2018,02,05,17,56,6.70
2018,02,05,17,57,6.70
2018,02,05,17,58,6.60
2018,02,05,17,59,6.60
2018,02,05,18,00,6.60
2018,02,05,18,01,6.60
2018,02,05,18,02,6.50